Location: Mount Cross
(36.6390°N, 79.4878°W)
Time: 00:31:19
(UTC+00:00)

Vanguard 2 Rocket - Pass Details

Date: 23 March 2023
Orbit: 554 x 3314 km, 32.9° (Epoch: 08 June)

Event Time Altitude Azimuth Distance (km) Brightness Sun altitude
Rises 05:38:24 0° 278° (W) 5,267 10.8 -52.3°
Enters shadow 05:40:19 - 277° (W) 4,813 10.6 -52.3°
Exits shadow 06:12:12 15° 128° (SE) 5,791 10.8 -50.8°
Drops below altitude 10° 06:14:36 10° 126° (SE) 6,266 11.0 -50.7°
Sets 06:19:32 0° 123° (ESE) 7,238 11.4 -50.3°
